Location: Pella
(41.4080°N, 92.9160°W)
Time: 03:56:40
(UTC-05:00)

Daily predictions for brighter satellites

Satellite Brightness Start Highest point End
(mag) Time Altitude Azimuth Time Altitude Azimuth Time Altitude Azimuth
Cosmos 2369 Rocket 3.3 00:03:23 10° NNW 00:07:06 40° NW 00:07:06 40° NW
CZ-2C R/B 3.9 00:17:28 10° N 00:21:05 38° NNW 00:21:05 38° NNW
ADEOS Rocket 4.4 00:17:49 10° NNE 00:21:59 31° ENE 00:21:59 31° ENE
Terra 4.4 00:27:10 14° WNW 00:27:10 14° WNW 00:28:28 10° NW
CZ-4C R/B 3.8 00:29:46 29° NW 00:30:34 30° NW 00:35:51 10° NNE
USA 234 3.7 00:32:58 56° NW 00:32:58 56° NW 00:37:56 10° NW
Mayak 1.6 00:32:56 10° NNE 00:33:35 14° NNE 00:33:35 14° NNE
ATLAS 5 CENTAUR R/B 3.6 00:32:11 10° NW 00:35:40 37° NW 00:35:40 37° NW
SeaSat 1 4.3 00:48:49 28° N 00:48:49 28° N 00:51:08 10° NNW
Lacrosse 5 4.4 00:48:01 10° NW 00:48:55 15° NW 00:48:55 15° NW
COSMOS 2406 4.4 01:50:43 39° NNE 01:50:43 39° NNE 01:54:16 10° NNE
SL-16 R/B 4.4 01:51:48 19° E 01:53:59 23° ENE 01:58:42 10° NNE
Cosmos 1697 Rocket 4.5 01:52:09 10° N 01:56:48 25° NE 01:57:47 24° ENE
Cosmos 2082 Rocket 3.9 02:06:40 25° ENE 02:06:40 25° ENE 02:09:47 10° NE
ADEOS Rocket 4.2 02:03:18 10° N 02:08:56 36° NW 02:08:56 36° NW
Resurs 1-4 Rocket 3.9 02:20:02 10° NE 02:23:33 24° E 02:23:33 24° E
Cosmos 909 Rocket 4.2 02:28:28 10° NNW 02:34:29 69° NE 02:34:29 69° NE
Cosmos 1833 Rocket 3.3 02:41:36 51° NE 02:41:36 51° NE 02:45:58 10° NNE
Lacrosse 4 Rocket 3.6 02:39:23 10° NNW 02:41:22 24° N 02:41:22 24° N
Iridium 4 Rocket 4.5 03:00:48 36° NE 03:00:48 36° NE 03:03:46 10° NNE
Cosmos 1607 4.0 03:04:44 70° NW 03:04:44 70° NW 03:11:10 10° NNE
APEX 4.4 03:06:54 88° SE 03:06:56 88° ESE 03:12:57 10° NNE
Lacrosse 5 rocket 3.0 03:11:25 34° NNE 03:11:25 34° NNE 03:13:53 10° NE
ARIANE 5 R/B 3.3 03:08:28 10° NNE 03:13:27 43° E 03:13:42 43° ESE
Cosmos 371 Rocket 4.3 03:17:11 40° NNW 03:17:11 40° NNW 03:20:41 10° N
Cosmos 1066 Rocket 4.4 03:18:27 59° ESE 03:18:42 60° E 03:24:02 10° NNE
Cosmos 1092 Rocket 3.9 03:15:57 10° N 03:22:09 74° W 03:22:09 74° W
Cosmos 2142 Rocket 4.4 03:22:36 66° SSE 03:23:23 76° E 03:29:31 10° N
Helios 1A Rocket 4.3 03:23:47 10° NNE 03:27:22 35° E 03:27:22 35° E
CZ-2D R/B 2.0 03:23:21 10° NNE 03:28:39 85° NNW 03:28:39 85° NNW
Cosmos 1726 Rocket 4.4 03:30:54 10° N 03:35:02 43° ENE 03:35:31 42° E
IRS P6 4.5 03:30:17 10° N 03:35:31 79° WNW 03:35:31 79° WNW
SL-16 R/B 2.5 03:36:53 63° WSW 03:37:05 63° WSW 03:43:18 10° NNW
Cosmos 1980 Rocket 2.1 03:33:05 10° NNW 03:38:44 88° ENE 03:39:51 59° SSE
IRS-1D 3.4 03:34:40 10° NNE 03:39:52 82° WNW 03:40:01 81° WSW
Cosmos 1697 Rocket 3.4 03:35:35 10° NW 03:39:27 39° WNW 03:39:27 39° WNW
Exosat Rocket 4.5 03:35:26 10° NNW 03:41:25 52° WSW 03:41:47 51° WSW
IRS-1C 4.1 03:39:37 10° N 03:44:53 62° WNW 03:45:00 62° W
Okean 1-7 Rocket 3.7 03:46:30 73° N 03:46:30 73° N 03:50:36 10° N
H-2A R/B 3.8 03:44:43 10° N 03:47:33 30° NW 03:47:33 30° NW
Cosmos 2082 Rocket 2.9 03:48:31 38° WNW 03:48:51 39° WNW 03:54:08 10° N
ADEOS II 3.5 03:44:33 10° NNE 03:49:15 32° E 03:52:21 18° SSE
Cosmos 304 Rocket 3.8 03:50:21 66° NW 03:50:21 66° NW 03:55:01 10° NNE
Cosmos 1627 Rocket 4.5 03:43:54 10° NNW 03:50:13 65° W 03:51:18 56° SW
ADEOS 4.0 03:46:28 10° NNE 03:51:37 56° ESE 03:53:17 39° SSE
SL-16 R/B 3.5 03:46:21 10° N 03:51:40 39° ENE 03:56:57 10° SE
UNKNOWN OBJECT B 3.3 03:50:05 10° NNE 03:53:49 51° E 03:53:49 51° E
Cosmos 2058 Rocket 3.7 03:52:02 10° N 03:56:23 53° E 03:58:12 31° SE
Cosmos 1544 4.4 03:53:56 10° NNW 03:56:06 34° NNW 03:56:06 34° NNW
MOZ.5/SAFIR/RUBIN 5/SL-8 4.0 04:00:06 53° WNW 04:00:06 53° WNW 04:04:13 10° NNW
Cosmos 2228 3.3 03:56:06 10° N 04:00:22 63° E 04:01:28 45° SE
Cosmos 1606 Rocket 3.5 03:58:57 10° NNW 04:02:57 68° WNW 04:02:57 68° WNW
Resurs 1-4 Rocket 2.6 03:59:22 10° N 04:04:16 41° WNW 04:04:38 40° W
Meteor 1-22 Rocket 4.2 03:59:31 10° N 04:05:30 88° W 04:08:34 30° S
ATLAS 3B R/B 3.2 04:03:31 30° S 04:07:02 57° ESE 04:13:50 10° NE
Cosmos 2322 Rocket 3.1 04:01:46 10° NNW 04:07:15 49° ENE 04:12:41 10° SE
Cosmos 1634 Rocket 4.5 04:09:34 37° W 04:10:31 40° WNW 04:16:22 10° N
NOSS 3-2 (A) 4.4 04:10:13 22° S 04:13:26 39° ESE 04:19:18 10° NE
Cosmos 2180 Rocket 4.5 04:11:31 37° SSW 04:14:14 77° W 04:20:40 10° N
SJ 16-02 3.7 04:11:28 10° N 04:15:04 24° ENE 04:18:40 10° ESE
Cosmos 1892 Rocket 3.5 04:15:29 62° WSW 04:15:59 68° W 04:20:23 10° N
Cosmos 1763 Rocket 3.4 04:14:42 45° SSW 04:16:23 88° W 04:21:45 10° NNE
Cosmos 1842 3.2 04:16:46 61° S 04:17:24 82° E 04:21:23 10° N
COSMOS 2487 4.3 04:18:57 21° NW 04:18:57 21° NW 04:20:58 10° N
ATLAS CENTAUR R/B 4.5 04:17:07 10° N 04:20:10 18° NE 04:23:20 10° E
deb Kosmos-1763 4.1 04:22:46 61° S 04:23:20 79° ESE 04:27:06 10° NNE
Cosmos 2279 Rocket 4.2 04:21:32 37° SW 04:23:39 53° WNW 04:29:47 10° N
Cosmos 1833 Rocket 4.3 04:23:18 18° WNW 04:24:48 20° NW 04:28:55 10° N
Transit 2A Rocket 4.4 04:23:31 10° NNW 04:28:01 73° WSW 04:32:17 10° SSE
USA 215 3.6 04:22:34 10° NE 04:28:59 56° SE 04:32:57 24° SSW
Cosmos 1898 Rocket 3.8 04:26:29 10° NNW 04:31:23 42° WSW 04:32:39 36° SW
H-II Stage 2 4.4 04:30:22 16° S 04:33:05 22° SE 04:43:55 10° E
Cosmos 1805 3.1 04:29:31 10° NNW 04:33:23 66° W 04:34:26 44° SSW
Cosmos 1953 3.4 04:30:23 10° N 04:34:19 46° E 04:38:14 10° SSE
Cosmos 44 3.4 04:30:46 10° NW 04:36:02 82° WSW 04:41:25 10° SSE
Cosmos 1766 4.0 04:37:02 10° NNW 04:40:20 34° W 04:40:20 34° W
Cosmos 1937 Rocket 3.6 04:36:39 10° NNW 04:41:38 48° WSW 04:45:30 16° S
Aureole 2 Rocket 4.4 04:43:40 10° N 04:47:11 33° ENE 04:50:28 10° SE
Lacrosse 5 rocket 3.7 04:47:08 10° WNW 04:49:39 15° NNW 04:52:03 10° NNE
ARIANE 5 R/B 3.8 04:48:07 10° NNW 04:52:17 25° WNW 04:54:02 20° W
Timation 2 Rocket 4.1 04:52:40 24° SW 04:56:12 53° WNW 05:02:04 10° NNE
Okean O Rocket 3.7 04:52:55 10° NE 04:56:36 26° E 05:00:15 10° SSE
ERBS 4.2 04:55:23 14° S 04:57:33 24° SE 05:00:22 10° ENE
Cosmos 1758 3.3 04:56:36 10° NNW 05:00:31 59° W 05:04:26 10° S
Cosmos 44 Rocket 3.4 04:59:58 10° NW 05:05:05 67° WSW 05:10:14 10° SSE
CZ-2D R/B 4.1 05:05:50 10° NW 05:07:58 12° WNW 05:09:59 10° W
Cosmos 2266 Rocket 4.1 05:02:15 10° NNW 05:08:05 51° W 05:14:00 10° SSW
Cosmos 372 Rocket 4.2 05:03:01 10° NNW 05:08:16 77° ENE 05:13:26 10° SSE
Cosmos 1733 3.3 05:05:56 10° NNW 05:09:43 56° W 05:13:30 10° S
USA 238 DEB 4.0 05:05:08 19° WSW 05:10:06 55° NW 05:16:57 10° NNE
USA 238 4.0 05:05:12 19° WSW 05:10:12 56° NW 05:17:04 10° NNE
DNEPR-1 R/B 3.6 05:11:13 19° SW 05:14:09 68° NW 05:18:44 10° NNE
PSLV R/B 3.5 05:15:17 10° N 05:19:29 69° WNW 05:23:38 10° SSW
Cosmos 2360 Rocket 2.3 05:14:35 10° NNW 05:20:15 82° ENE 05:25:52 10° SSE
BREEZE-M R/B 3.9 05:18:18 14° W 05:21:12 48° NNW 05:27:47 10° ENE
Cosmos 1980 Rocket 3.9 05:19:57 10° WNW 05:21:31 12° W 05:21:31 12° W
ADEOS II 3.0 05:24:16 10° N 05:28:53 32° WNW 05:33:18 11° SW
Cosmos 1812 Rocket 3.8 05:25:31 10° NNW 05:29:50 49° W 05:34:06 10° SSW
CZ-4B R/B 2.9 05:26:30 10° N 05:30:43 71° WNW 05:34:41 10° SSW
BREEZE-M DEB (TANK) 3.5 05:21:51 10° WNW 05:31:35 42° SW 05:34:50 10° SSE
Cosmos 1602 Rocket 4.4 05:30:58 11° SW 05:34:37 30° WNW 05:38:27 10° NNW
SL-16 R/B 2.9 05:30:44 10° NW 05:35:36 30° WSW 05:40:27 10° SSW
Cosmos 1470 3.4 05:32:05 10° NNW 05:35:45 36° W 05:39:23 10° SSW
COSMOS 2428 3.8 05:34:02 10° NNW 05:39:35 50° ENE 05:45:04 10° SE
Cosmos 1758 Rocket 3.6 05:36:30 10° S 05:40:48 87° E 05:45:11 10° N
USA 161 1.6 05:38:51 10° SSE 05:41:53 88° ENE 05:44:51 10° N
Cosmos 1238 Rocket 4.1 05:36:14 10° SSW 05:42:42 72° W 05:49:24 10° N
ATLAS 5 CENTAUR R/B 4.3 05:41:01 10° SW 05:45:55 13° SSW 05:49:02 10° S
NOSS 3-2 (C) 3.6 05:41:15 10° SW 05:47:08 66° NW 05:53:42 10° NNE
Cosmos 2219 Rocket 3.8 05:42:02 10° N 05:47:18 40° ENE 05:52:32 10° SE
Cosmos 540 Rocket 4.3 05:43:09 10° SW 05:47:47 34° WNW 05:52:28 10° N
Cosmos 2322 Rocket 3.2 05:46:34 10° NW 05:50:55 23° W 05:55:14 10° SSW
Meteor 1-16 Rocket 4.2 05:47:16 10° NNW 05:52:53 67° W 05:58:17 10° S
Cosmos 1707 3.7 05:49:37 10° SW 05:53:01 29° WNW 05:56:28 10° NNW
SJ 16-02 2.1 05:49:47 10° NW 05:53:40 31° W 05:57:32 10° SSW
ATLAS 3B R/B 3.6 05:51:37 10° WSW 05:58:03 35° NW 06:04:17 10° NNE
